Flag for France Weather past 2 weeks in Istres, France

Now
57 °F

Clear.


Feels Like: 56 °F
Forecast: 53 / 70 °F
Wind: 7 mph from North

Location: Istres Airport

Current Time: Oct 25, 2014 at 2:39:39 AM

Latest Report: Oct 25, 2014 at 2:00 AM


Visibility: N/A

Pressure: 29.98 "Hg

Humidity: 59%

Dew point: 43 °F

Location of IstresLocation

Historic Weather in Istres — Graph

°F

Istres temperature yesterday

Maximum temperature yesterday: 68 °F (at 3:30 PM)
Minimum temperature yesterday: 52 °F (at 6:00 AM)
Average temperature yesterday: 59 °F

Past Weeks' High & Low Weather Summary

 TemperatureHumidityPressure
High79 °F (Oct 10, 2:00 PM)100% (Oct 11, 7:30 AM)30.30 "Hg (Oct 11, 7:30 AM)
Low52 °F (Oct 22, 11:30 PM)34% (Oct 22, 2:30 PM)29.77 "Hg (Oct 13, 4:00 AM)
Average67 °F74%29.97 "Hg
* Reported Oct 10 1:00 AM — Oct 25 1:30 AM, Istres, Weather by CustomWeather, © 2014

Note: Actual official high and low records may vary slightly from our data, if they occured in-between our weather recording intervals... More about our weather records

Advertising

Istres weather history for previous 24 hours

 ConditionsComfort  
Time TempWeatherWind HumidityBarometerVisibility
1:30 AM
Oct 25
55 °FClear.2 mph63%30.01 "HgN/A
1:00 AM59 °FClear.9 mph51%30.01 "HgN/A
12:30 AM59 °FClear.12 mph51%29.98 "HgN/A
12:00 AM59 °FClear.8 mph51%29.98 "HgN/A
11:30 PM
Oct 24
59 °FClear.10 mph51%29.98 "HgN/A
11:00 PM59 °FClear.8 mph51%29.98 "HgN/A
10:30 PM61 °FClear.13 mph45%29.98 "HgN/A
10:00 PM63 °FClear.16 mph39%29.98 "HgN/A
9:30 PM61 °FClear.13 mph42%29.98 "HgN/A
9:00 PM61 °FClear.17 mph45%29.98 "HgN/A
8:30 PM63 °FClear.16 mph39%29.98 "HgN/A
8:00 PM61 °FClear.15 mph45%29.98 "HgN/A
7:30 PM61 °FClear.8 mph48%29.98 "HgN/A
7:00 PM63 °FClear.8 mph45%29.95 "HgN/A
6:30 PM64 °FClear.9 mph43%29.95 "HgN/A
6:00 PM66 °FClear.9 mph43%29.95 "HgN/A
5:30 PM68 °FClear.16 mph40%29.95 "HgN/A
5:00 PM68 °FClear.15 mph38%29.95 "HgN/A
4:30 PM68 °FClear.16 mph40%29.95 "HgN/A
4:00 PM68 °FClear.15 mph40%29.95 "HgN/A
3:30 PM68 °FClear.14 mph38%29.95 "HgN/A
3:00 PM66 °FClear.16 mph40%29.95 "HgN/A
2:30 PM66 °FClear.16 mph40%29.95 "HgN/A
2:00 PM64 °FClear.15 mph43%29.98 "HgN/A
1:30 PM64 °FClear.13 mph43%29.98 "HgN/A
1:00 PM63 °FClear.16 mph45%29.98 "HgN/A
12:30 PM61 °FClear.22 mph45%29.98 "HgN/A
12:00 PM61 °FClear.25 mph45%29.98 "HgN/A
11:30 AM59 °FClear.18 mph48%29.98 "HgN/A
11:00 AM57 °FClear.23 mph51%29.98 "HgN/A
10:30 AM57 °FClear.22 mph51%29.98 "HgN/A
10:00 AM55 °FClear.20 mph55%29.98 "HgN/A
9:30 AM55 °FClear.20 mph55%29.98 "HgN/A
9:00 AM54 °FClear.20 mph58%29.98 "HgN/A
8:30 AM54 °FClear.23 mph58%29.95 "HgN/A
8:00 AM54 °FClear.20 mph58%29.95 "HgN/A
7:30 AM54 °FClear.20 mph54%29.95 "HgN/A
7:00 AM54 °FClear.23 mph54%29.95 "HgN/A
6:30 AM54 °FClear.20 mph58%29.95 "HgN/A
6:00 AM52 °FClear.14 mph62%29.95 "HgN/A
5:30 AM54 °FClear.16 mph58%29.95 "HgN/A
4:30 AM54 °FClear.22 mph58%29.92 "HgN/A
4:00 AM54 °FClear.22 mph58%29.92 "HgN/A
3:30 AM54 °FClear.21 mph58%29.95 "HgN/A
3:00 AM54 °FClear.14 mph58%29.98 "HgN/A
2:30 AM54 °FClear.16 mph58%29.95 "HgN/A
2:00 AM54 °FClear.18 mph63%29.95 "HgN/A
Weather by CustomWeather, © 2014

See weather overviewHow to use our weather pages